Location: Poughquag
(41.6090°N, 73.6820°W)
Time: 08:39:23
(UTC-05:00)

Hubble Space Telescope - Pass Details

Date: 24 November 2019
Orbit: 536 x 540 km, 28.5° (Epoch: 08 December)

Event Time Altitude Azimuth Distance (km) Brightness Sun altitude
Rises 16:53:57 0° 230° (SW) 2,665 6.1 -5.2°
Reaches altitude 10° 16:57:21 10° 201° (SSW) 1,776 4.1 -5.7°
Maximum altitude 16:59:07 13° 175° (S) 1,623 3.5 -6.0°
Drops below altitude 10° 17:00:54 10° 150° (SSE) 1,778 3.3 -6.4°
Sets 17:04:19 0° 120° (ESE) 2,669 3.9 -6.9°
